This demonstration page uses our WeatherBlox Daily Observations layout. Learn more.

Left ArrowRight Arrow

34.02893, -84.19858

Hourly Observations for October 7, 2019

Temp ( °F °C ) Dew Point ( °F °C ) Humidity (%) Winds ( mph kmh ) Pressure ( in mb ) Visibility ( mi km ) Precip ( " mm )
12:53 am 00:53 Cloudy 69 20.6 63 17.2 81 81 VRB 5 7 30.12 1020 10 16 0.00 0.00
1:53 am 01:53 Partly Cloudy 68 20 63 17.2 84 84 VRB 3 6 30.12 1020 10 16 0.00 0.00
2:53 am 02:53 Clear 68 20 63 17.2 84 84 VRB 3 6 30.12 1020 10 16 0.00 0.00
3:53 am 03:53 Clear 67 19.4 63 17.2 87 87 Calm 30.11 1020 10 16 0.00 0.00
4:53 am 04:53 Partly Cloudy 66 18.9 63 17.2 90 90 VRB 3 6 30.09 1019 10 16 0.00 0.00
5:53 am 05:53 Mostly Clear 65 18.3 63 17.2 93 93 Calm 30.09 1019 10 16 0.00 0.00
6:53 am 06:53 Clear 65 18.3 63 17.2 93 93 VRB 3 6 30.08 1019 10 16 0.00 0.00
7:53 am 07:53 Sunny 65 18.3 63 17.2 93 93 VRB 3 6 30.09 1019 10 16 0.00 0.00
8:53 am 08:53 Mostly Cloudy 66 18.9 63 17.2 90 90 ENE 3 6 30.10 1019 10 16 0.00 0.00
9:39 am 09:39 Mostly Cloudy 69 20.6 63 17.2 81 81 E 6 9 30.11 1020 10 16 0.00 0.00
9:53 am 09:53 Mostly Cloudy 69 20.6 63 17.2 81 81 VRB 3 6 30.11 1020 10 16 0.00 0.00
10:53 am 10:53 Partly Cloudy 74 23.3 64 17.8 71 71 VRB 3 6 30.10 1019 10 16 0.00 0.00
11:12 am 11:12 Cloudy 73 22.8 63 17.2 71 71 Calm 30.10 1019 10 16 0.00 0.00
11:53 am 11:53 Cloudy 73 22.8 63 17.2 71 71 N 6 9 30.10 1019 10 16 0.00 0.00
12:33 pm 12:33 Cloudy 76 24.4 67 19.4 74 74 N 6 9 30.08 1019 10 16 0.01 0.25
12:53 pm 12:53 Mostly Cloudy 77 25 64 17.8 64 64 undefined N/A 30.07 1018 10 16 0.01 0.25
1:53 pm 13:53 Cloudy 75 23.9 63 17.2 66 66 NW 6 9 30.05 1018 10 16 0.00 0.00
2:53 pm 14:53 Cloudy 76 24.4 63 17.2 64 64 WNW 5 7 30.02 1017 10 16 0.00 0.00
3:53 pm 15:53 Cloudy 76 24.4 63 17.2 64 64 WSW 3 6 30.01 1016 10 16 0.00 0.00
4:53 pm 16:53 Mostly Cloudy 79 26.1 63 17.2 58 58 N 3 6 29.98 1015 10 16 0.00 0.00
5:53 pm 17:53 Sunny 77 25 61 16.1 58 58 WNW 3 6 29.98 1015 10 16 0.00 0.00
6:53 pm 18:53 Sunny 75 23.9 62 16.7 64 64 W 3 6 29.99 1016 10 16 0.00 0.00
7:53 pm 19:53 Clear 74 23.3 63 17.2 69 69 NNW 5 7 29.99 1016 10 16 0.00 0.00
8:53 pm 20:53 Partly Cloudy 72 22.2 63 17.2 73 73 N 5 7 30.01 1016 10 16 0.00 0.00
9:53 pm 21:53 Mostly Cloudy 71 21.7 62 16.7 73 73 N 6 9 30.01 1016 10 16 0.00 0.00
10:53 pm 22:53 Cloudy 69 20.6 62 16.7 78 78 N 5 7 30.01 1016 10 16 0.00 0.00
11:53 pm 23:53 Mostly Clear 67 19.4 62 16.7 84 84 N 3 6 30.01 1016 10 16 0.00 0.00

Powered by AerisWeather